EHI
0 0 0 0 0 0 0 0 0 0 0 0 0 0 0 0 0 0 0 0 0 0 0 0 0 0 0 0 0 0 0 0 0 0 0 0 0 0 0 0 0 0 0
0 0 0 0 0 0 0 0 0 0 0 0 0 0 0 0 0 0 0 0 0 0 0 0 0 0 0 0 0 0 0 0 0 0 0 0 0 0 0 0 0 0 0
0 0 0 0 0 0 0 0 0 0 0 0 0 0 0 0 0 0 0 0 0 0 0 0 0 0 0 0 0 0 0 0 0 0 0 0 0 0 0 0 0 0 0
0 0 0 0 0 0 0 0 0 0 0 0 0 0 0 0 0 0 0 0 0 0 0 0 0 0 0 0 0 0 0 0 0 0 0 0 0 0 0 0 0 0 0
0 0 0 0 0 0 0 0 0 0 0 0 0 0 0 0 0 0 0 0 0 0 0 0 0 0 0 0 0 0 0 0 0 0 0 0 0 0 0 0 0 0 0
0 0 0 0 0 0 0 0 0 0 0 0 0 0 0 0 0 0 0 0 0 0 0 0 0 0 0 0 0 0 0 0 0 0 0 0 0 0 0 0 0 0 0
0 0 0 0 0 0 0 0 0 0 0 0 0 0 0 0 0 0 0 0 0 0 0 0 0 0 0 0 0 0 0 0 0 0 0 0 0 0 0 0 0 0 0
0 0 0 0 0 0 0 0 0 0 0 0 0 0 0 0 0 0 0 0 0 0 0 0 0 0 0 0 0 0 0 0 0 0 0 0 0 0 0 0 0 0 0
0 0 0 0 0 0 0 0 0 0 0 0 0 0 0 0 0 0 0 0 0 0 0 0 0 0 0 0 0 0 0 0 0 0 0 0 0 0 0 0 0 0 0
0 0 0 0 0 0 0 0 0 0 0 0 0 0 0 0 0 0 0 0 0 0 0 0 0 0 0 0 0 0 0 0 0 0 0 0 0 0 0 0 0 0 0
0 0 0 0 0 0 0 0 0 0 0 0 0 0 0 0 0 0 0 0 0 0 0 0 0 0 0 0 0 0 0 0 0 0 0 0 0 0 0 0 0 0 0
0 0 0 0 0 0 0 0 0 0 0 0 0 0 0 0 0 0 0 0 0 0 0 0 0 0 0 0 0 0 0 0 0 0 0 0 0 0 0 0 0 0 0
0 0 0 0 0 0 0 0 0 0 0 0 0 0 0 0 0 0 0 0 0 0 0 0 0 0 0 0 0 0 0 0 0 0 0 0 0 0 0 0 0 0 0
0 0 0 0 0 0 0 0 0 0 0 0 0 0 0 0 0 0 0 0 0 0 0 0 0 0 0 0 0 0 0 0 0 0 0 0 0 0 0 0 0 0 0
0 0 0 0 0 0 0 0 0 0 0 0 0 0 0 0 0 0 0 0 0 0 0 0 0 0 0 0 0 0 0 0 0 0 0 0 0 0 0 0 0 0 0
0 0 0 0 0 0 0 0 0 0 0 0 0 0 0 0 0 0 0 0 0 0 0 0 0 0 0 0 0 0 0 0 0 0 0 0 0 0 0 0 0 0 0
0 0 0 0 0 0 0 0 0 0 0 0 0 0 0 0 0 0 0 0 0 0 0 0 0 0 0 0 0 0 0 0 0 0 0 0 0 0 0 0 0 0 0
0 0 0 0 0 0 0 0 0 0 0 0 0 0 0 0 0 0 0 0 0 0 0 0 0 0 0 0 0 0 0 0 0 0 0 0 0 0 0 0 0 0 0
0 0 0 0 0 0 0 0 0 0 0 0 0 0 0 0 0 0 0 0 0 0 0 0 0 0 0 0 0 0 0 0 0 0 0 0 0 0 0 0 0 0 0
0 0 0 0 0 0 0 0 0 0 0 0 0 0 0 0 0 0 0 0 0 0 0 0 0 0 0 0 0 0 0 0 0 0 0 0 0 0 0 0 0 0 0
0 0 0 0 0 0 0 0 0 0 0 0 0 0 0 0 0 0 0 0 0 0 0 0 0 0 0 0 0 0 0 0 0 0 0 0 0 0 0 0 0 0 0
0 0 0 0 0 0 0 0 0 0 0 0 0 0 0 0 0 0 0 0 0 0 0 0 0 0 0 0 0 0 0 0 0 0 0 0 0 0 0 0 0 0 0
0 0 0 0 0 0 0 0 0 0 0 0 0 0 0 0 0 0 0 0 0 0 0 0 0 0 0 0 0 0 0 0 0 0 0 0 0 0 0 0 0 0 0
0 0 0 0 0 0 0 0 0 0 0 0 0 0 0 0 0 0 0 0 0 0 0 0 0 0 0 0 0 0 0 0 0 0 0 0 0 0 0 0 0 0 0
0 0 0 0 0 0 0 0 0 0 0 0 0 0 0 0 0 0 0 0 0 0 0 0 0 0 0 0 0 0 0 0 0 0 0 0 0 0 0 0 0 0 0
0 0 0 0 0 0 0 0 0 0 0 0 0 0 0 0 0 0 0 0 0 0 0 0 0 0 0 0 0 0 0 0 0 0 0 0 0 0 0 0 0 0 0
Wind_Speed
5 5 6 6 6 5 5 5 4 3 3 2 2 2 1 1 1 1 2 3 3 3 3 3 3 3 3 3 3 3 3 2 2 3 3 4 4 3 2 2 2 2 2
4 4 5 5 6 5 5 5 5 4 3 2 2 2 2 1 0 1 2 2 2 2 3 3 2 2 3 3 3 3 2 1 1 3 2 2 3 3 3 2 2 2 2
9 7 6 5 6 6 6 6 5 4 3 3 2 2 2 2 2 2 1 1 1 2 3 3 3 2 2 2 2 2 3 1 0 1 3 3 1 1 3 3 3 2 2
7 7 7 6 6 6 6 6 5 4 3 4 4 4 3 2 1 1 1 1 0 2 2 3 3 2 2 2 2 2 2 2 1 0 0 2 3 2 1 3 3 3 2
8 9 8 8 7 6 6 5 5 4 3 4 5 4 3 2 1 1 1 0 0 1 2 2 2 2 2 2 2 2 2 2 2 1 1 1 1 2 2 1 2 2 2
7 7 7 6 5 5 5 5 5 4 3 4 4 5 4 3 2 1 1 1 0 0 0 2 2 2 2 2 2 2 2 1 1 1 1 2 2 2 2 2 1 1 1
8 7 7 7 6 6 5 5 5 3 3 4 4 4 5 4 4 4 3 2 1 1 1 1 2 2 2 2 2 2 1 1 1 1 1 1 1 2 2 3 1 0 1
7 8 9 8 7 7 6 6 5 4 4 4 4 3 4 3 3 3 3 3 2 2 2 2 2 2 2 2 2 1 1 1 1 1 1 1 1 2 2 3 3 1 1
8 8 8 7 7 7 6 7 7 5 4 4 4 3 3 3 3 3 3 3 2 2 3 3 2 2 2 2 2 1 1 2 1 1 2 1 1 1 1 2 3 3 2
7 7 7 7 6 6 5 5 6 6 5 4 4 3 4 4 3 3 3 3 3 3 3 3 2 2 2 2 2 1 1 2 1 1 1 1 1 1 1 2 1 2 3
8 7 6 6 5 5 5 5 5 4 4 4 3 3 3 3 3 3 4 4 3 3 3 4 3 3 2 2 2 2 2 2 1 1 2 1 1 1 1 1 1 1 2
6 6 6 5 5 5 5 5 5 4 4 3 3 3 2 2 2 3 3 4 3 3 3 4 3 3 3 2 3 2 2 2 2 1 1 1 1 1 1 1 1 1 2
4 4 4 5 5 5 5 5 4 4 3 3 3 2 2 2 2 3 3 3 3 3 3 3 4 3 3 3 3 3 3 3 2 2 2 2 2 1 1 1 1 1 1
5 5 4 4 5 5 4 4 3 3 3 3 3 2 3 3 3 3 3 3 4 4 3 3 4 4 3 3 3 3 2 2 2 2 2 2 3 3 2 2 2 2 2
4 5 5 4 4 4 4 4 3 3 3 3 3 3 3 2 2 2 2 3 3 4 3 3 3 3 3 3 4 3 3 2 2 2 2 2 3 3 3 2 3 3 3
4 4 4 4 4 5 5 4 4 4 4 4 4 3 3 2 2 2 2 2 2 3 3 3 3 3 3 4 5 4 3 3 3 2 2 1 2 3 3 4 4 5 5
4 4 5 5 5 5 5 5 5 4 4 4 3 3 3 3 2 2 2 2 2 2 2 3 3 3 3 4 5 5 4 3 3 3 2 1 1 2 2 2 3 3 5
3 3 3 4 3 3 3 4 3 4 4 3 3 3 3 3 2 2 2 2 2 2 2 3 3 3 3 4 5 6 4 3 3 3 4 3 2 2 3 2 2 2 3
3 3 3 3 2 2 3 2 2 3 3 4 4 4 3 3 3 3 3 2 2 2 2 3 3 3 3 4 4 5 3 2 2 3 3 3 3 4 4 4 3 2 2
1 2 1 2 2 2 3 3 2 2 2 3 4 3 4 4 3 3 3 2 2 3 2 2 2 3 3 3 4 5 3 2 2 2 2 4 4 4 4 4 4 4 3
1 2 2 2 2 2 3 3 2 3 3 2 3 3 3 3 3 2 2 2 2 1 2 1 1 1 2 2 3 4 3 3 3 2 2 3 4 5 5 5 4 5 3
1 2 2 1 1 2 3 3 2 3 2 2 3 3 3 2 2 2 1 2 2 2 1 1 1 1 1 2 2 3 3 3 3 3 3 3 4 5 5 4 4 4 3
2 2 2 1 0 1 3 3 3 2 2 3 3 2 2 2 2 3 2 2 2 1 1 1 1 2 1 1 2 2 3 3 2 3 4 3 3 3 3 4 4 4 2
2 2 2 2 1 1 2 3 2 2 3 3 3 2 2 2 1 1 2 2 2 2 2 2 2 2 1 1 1 1 1 2 2 2 3 3 3 2 2 2 2 2 3
2 2 2 2 2 2 2 2 2 3 3 3 3 2 2 2 2 2 2 3 3 4 4 3 3 3 3 4 3 2 2 2 2 1 0 0 1 1 1 1 2 2 2
2 2 2 2 2 2 2 2 2 3 3 2 3 2 2 2 2 2 1 2 2 3 5 4 4 3 3 2 3 3 3 3 3 2 1 2 3 3 3 3 3 3 3
Wind_Direction
201 167 159 154 145 142 134 136 131 137 122 109 106 97 83 44 33 52 72 79 89 93 94 96 91 88 94 97 99 96 81 71 90 81 48 25 30 42 43 41 49 47 51
171 161 157 152 150 150 149 147 149 152 149 146 151 153 149 130 86 37 54 66 82 99 109 111 109 103 103 94 93 100 98 83 88 108 92 33 6 8 25 32 55 46 49
178 173 161 159 153 154 160 158 160 157 155 145 117 91 67 48 38 23 12 1 72 100 111 120 118 114 119 133 137 132 131 150 295 127 135 137 193 326 348 8 27 35 52
171 171 163 161 163 169 162 156 161 158 158 146 137 137 137 152 207 213 236 305 67 112 126 134 135 133 132 140 160 142 144 141 173 330 98 150 154 147 348 342 360 19 41
169 173 171 169 167 165 161 162 159 158 159 153 152 149 150 178 188 172 171 278 337 97 124 139 140 140 143 147 146 130 130 143 156 162 113 85 82 119 139 239 328 357 1
168 170 169 161 158 155 155 156 156 164 164 159 156 156 161 166 158 171 184 221 277 324 122 145 140 147 151 160 161 150 145 145 136 135 134 144 149 159 145 164 214 292 321
165 165 162 165 165 163 163 158 156 167 176 169 170 171 173 174 180 189 192 192 199 233 226 163 157 158 166 163 152 139 158 158 148 155 153 145 157 154 144 138 158 209 304
173 174 176 176 177 175 171 165 171 180 182 178 184 188 181 179 190 192 184 192 201 210 199 173 168 171 167 153 139 126 160 147 158 153 142 132 143 137 144 150 145 120 351
180 180 179 177 179 180 181 179 178 183 187 188 183 190 195 189 194 197 190 199 206 203 184 173 167 171 169 163 149 145 172 155 161 161 149 144 159 151 152 150 152 149 165
184 181 179 182 184 184 183 181 182 186 192 193 196 194 201 196 194 186 195 199 198 193 175 174 169 171 170 163 149 151 165 143 165 157 139 135 154 144 147 154 153 143 152
187 185 184 185 179 174 174 178 184 189 194 197 198 194 203 199 193 198 200 197 198 192 184 178 172 174 178 166 150 167 163 162 190 178 162 186 160 145 145 135 135 140 134
184 183 182 177 174 177 177 181 185 191 200 197 185 188 198 191 192 205 206 195 194 196 190 181 174 182 188 179 168 183 184 178 187 197 166 193 157 152 153 144 145 148 144
170 170 171 179 183 186 186 187 188 193 193 176 168 172 182 188 201 210 203 190 190 192 186 176 181 189 193 191 190 185 188 191 195 191 185 199 166 179 175 155 151 156 133
170 175 183 184 182 182 184 189 195 189 177 164 164 179 196 201 205 202 191 184 179 179 184 190 194 194 193 189 184 177 179 188 198 194 190 188 179 186 180 166 166 144 122
167 178 187 190 185 180 182 185 194 195 180 168 177 203 207 201 191 189 193 186 183 187 188 186 195 193 189 194 184 179 175 174 186 199 201 196 193 188 183 173 171 153 144
183 184 181 181 189 191 190 186 191 205 189 184 191 196 189 181 188 193 198 185 187 194 190 190 187 191 211 208 189 171 167 170 174 192 220 218 207 210 202 191 181 173 168
196 191 193 197 199 198 193 195 201 192 180 186 191 189 183 175 193 195 179 194 195 187 190 194 183 192 218 204 189 179 165 173 185 191 199 224 220 194 185 194 195 207 200
202 208 210 212 211 202 196 194 187 183 183 187 197 195 179 182 186 176 181 195 188 191 193 191 188 188 212 200 191 181 166 173 193 197 194 195 214 214 185 175 186 229 238
189 198 196 191 179 184 185 159 176 180 182 197 201 194 183 180 182 189 202 202 187 195 191 185 185 191 221 213 197 176 165 180 211 216 208 197 209 222 194 170 189 233 269
177 162 140 123 138 171 141 123 153 160 195 205 197 182 176 175 180 194 201 199 188 197 187 172 187 196 216 222 200 174 161 182 213 230 232 221 217 218 198 180 183 206 236
154 133 123 132 169 164 134 135 160 206 215 194 166 157 166 171 171 175 170 168 170 161 160 162 198 206 218 222 206 183 171 186 198 217 236 239 227 219 210 197 195 207 197
118 121 123 139 184 156 147 154 200 223 188 150 144 154 161 166 160 154 158 151 150 155 171 165 241 263 249 230 228 203 194 190 192 220 228 234 229 221 212 206 203 188 166
143 133 139 142 277 180 159 175 219 205 159 144 157 166 162 164 157 157 161 155 150 162 199 199 235 263 265 259 246 217 207 207 210 228 231 230 224 221 218 212 198 184 176
166 152 135 141 234 246 189 195 200 166 148 159 175 174 170 177 173 172 173 171 177 189 203 207 233 255 271 264 264 255 234 232 237 240 241 236 232 235 228 217 212 204 198
192 170 169 186 217 228 207 203 187 155 154 174 190 189 186 184 187 192 193 195 207 204 202 210 206 207 235 249 235 201 221 228 233 204 205 251 226 219 231 235 223 211 203
188 184 195 207 221 213 208 212 197 167 163 176 195 196 193 190 186 186 220 241 228 238 232 222 210 224 236 258 235 225 227 220 186 145 199 224 226 224 221 224 230 223 220